User: anonymous   Login
Location: Newark
(43.9494°N, 6.8108°E)
Time: 01:01:56
(UTC+00:00)
Language:

Tiros 1 despin weight - Orbit

View from above orbital plane
View from above orbital plane
View from above satellite
View from above satellite

Ground track
Ground track

The orbit data is extracted from the following two-line orbital elements,

1   115U 60002D   19295.36256771  .00000080  00000-0  36552-4 0  9991
2   115  48.1678 343.8487 0035263 274.8633  84.8253 14.83494718177477
Epoch (UTC): 22 October 2019 08:42:05
Eccentricity: 0.0035263
inclination: 48.1678°
perigee height: 593 km
apogee height: 643 km
right ascension of ascending node: 343.8487°
argument of perigee: 274.8633°
revolutions per day: 14.83494718
mean anomaly at epoch: 84.8253°
orbit number at epoch: 17747

The dashed part of the orbit path shows where the satellite is in the earth's shadow,  

DLR